| time (UTC) | temp F | wind direction | speed MPH | gust MPH | rain 1hr in | rain 24hr in | rain mn in | humidity % | barometer mb |
| 20260905234339 | 91 | 6 | 7.0 | 9.0 | 0.00 | 0.00 | 0.00 | 61 | |
| 20260905233834 | 91 | 12 | 7.0 | 9.0 | 0.00 | 0.00 | 0.00 | 59 | |
| 20260905233329 | 91 | 2 | 9.0 | 10.0 | 0.00 | 0.00 | 0.00 | 59 | |
| 20260905232828 | 92 | 2 | 9.0 | 11.0 | 0.00 | 0.00 | 0.00 | 58 | |
| 20260905232325 | 92 | 3 | 11.0 | 13.0 | 0.00 | 0.00 | 0.00 | 57 | |
| 20260905231820 | 92 | 345 | 11.0 | 13.0 | 0.00 | 0.00 | 0.00 | 58 | |
| 20260905231315 | 92 | 345 | 11.0 | 14.0 | 0.00 | 0.00 | 0.00 | 57 | |
| 20260905230811 | 93 | 2 | 12.0 | 16.0 | 0.00 | 0.00 | 0.00 | 56 | |
| 20260905230309 | 93 | 341 | 13.0 | 15.0 | 0.00 | 0.00 | 0.00 | 56 | |
| 20260905225809 | 93 | 2 | 8.0 | 11.0 | 0.00 | 0.00 | 0.00 | 56 | |
| 20260905225306 | 93 | 349 | 13.0 | 15.0 | 0.00 | 0.00 | 0.00 | 55 | |
| 20260905224803 | 93 | 340 | 11.0 | 13.0 | 0.00 | 0.00 | 0.00 | 55 | |
| 20260905224259 | 93 | 1 | 13.0 | 15.0 | 0.00 | 0.00 | 0.00 | 55 | |
| 20260905223755 | 93 | 23 | 13.0 | 15.0 | 0.00 | 0.00 | 0.00 | 56 | |
| 20260905223252 | 94 | 352 | 12.0 | 16.0 | 0.00 | 0.00 | 0.00 | 54 | |
| 20260905222747 | 94 | 11 | 10.0 | 11.0 | 0.00 | 0.00 | 0.00 | 54 | |
| 20260905222246 | 94 | 17 | 9.0 | 11.0 | 0.00 | 0.00 | 0.00 | 55 | |
| 20260905221742 | 94 | 346 | 9.0 | 11.0 | 0.00 | 0.00 | 0.00 | 54 | |
| 20260905221239 | 94 | 7 | 12.0 | 15.0 | 0.00 | 0.00 | 0.00 | 53 | |
| 20260905220734 | 94 | 24 | 11.0 | 14.0 | 0.00 | 0.00 | 0.00 | 53 | |
| 20260905220230 | 94 | 22 | 13.0 | 17.0 | 0.00 | 0.00 | 0.00 | 52 | |
| 20260905215729 | 94 | 22 | 11.0 | 16.0 | 0.00 | 0.00 | 0.00 | 53 | |
| 20260905215225 | 94 | 28 | 12.0 | 15.0 | 0.00 | 0.00 | 0.00 | 53 | |
| 20260905214721 | 94 | 8 | 12.0 | 16.0 | 0.00 | 0.00 | 0.00 | 53 | |
| 20260905214216 | 94 | 329 | 12.0 | 16.0 | 0.00 | 0.00 | 0.00 | 51 | |
| 20260905213712 | 95 | 353 | 12.0 | 16.0 | 0.00 | 0.00 | 0.00 | 48 | |
| 20260905213208 | 95 | 356 | 11.0 | 14.0 | 0.00 | 0.00 | 0.00 | 47 | |
| 20260905212702 | 95 | 353 | 11.0 | 14.0 | 0.00 | 0.00 | 0.00 | 47 | |
| 20260905212201 | 95 | 342 | 5.0 | 11.0 | 0.00 | 0.00 | 0.00 | 48 | |
| 20260905211656 | 95 | 345 | 9.0 | 10.0 | 0.00 | 0.00 | 0.00 | 48 | |
| 20260905211152 | 95 | 347 | 10.0 | 13.0 | 0.00 | 0.00 | 0.00 | 49 | |
| 20260905210648 | 97 | 337 | 14.0 | 15.0 | 0.00 | 0.00 | 0.00 | 45 | |
| 20260905210148 | 97 | 330 | 4.0 | 7.0 | 0.00 | 0.00 | 0.00 | 44 | |
| 20260905205648 | 97 | 354 | 10.0 | 10.0 | 0.00 | 0.00 | 0.00 | 44 | |
| 20260905205147 | 97 | 16 | 6.0 | 9.0 | 0.00 | 0.00 | 0.00 | 45 | |
| 20260905204646 | 97 | 6 | 7.0 | 11.0 | 0.00 | 0.00 | 0.00 | 43 | |
| 20260905204142 | 97 | 351 | 8.0 | 13.0 | 0.00 | 0.00 | 0.00 | 44 | |
| 20260905203636 | 97 | 312 | 7.0 | 10.0 | 0.00 | 0.00 | 0.00 | 44 | |
| 20260905203132 | 97 | 109 | 5.0 | 11.0 | 0.00 | 0.00 | 0.00 | 46 | |
| 20260905202627 | 97 | 356 | 7.0 | 8.0 | 0.00 | 0.00 | 0.00 | 44 | |
| 20260905202122 | 97 | 331 | 10.0 | 13.0 | 0.00 | 0.00 | 0.00 | 43 | |
| 20260905201618 | 97 | 4 | 8.0 | 10.0 | 0.00 | 0.00 | 0.00 | 44 | |
| 20260905201117 | 97 | 342 | 6.0 | 9.0 | 0.00 | 0.00 | 0.00 | 45 | |
| 20260905200613 | 96 | 330 | 6.0 | 11.0 | 0.00 | 0.00 | 0.00 | 46 | |
| 20260905200109 | 96 | 340 | 12.0 | 14.0 | 0.00 | 0.00 | 0.00 | 45 | |
| 20260905195607 | 98 | 324 | 12.0 | 15.0 | 0.00 | 0.00 | 0.00 | 44 | |
| 20260905195103 | 97 | 328 | 11.0 | 11.0 | 0.00 | 0.00 | 0.00 | 44 | |
| 20260905194602 | 97 | 338 | 8.0 | 14.0 | 0.00 | 0.00 | 0.00 | 44 | |
| 20260905194101 | 97 | 156 | 3.0 | 9.0 | 0.00 | 0.00 | 0.00 | 44 | |
| 20260905193556 | 97 | 223 | 5.0 | 8.0 | 0.00 | 0.00 | 0.00 | 43 | |
| 20260905193052 | 97 | 322 | 11.0 | 11.0 | 0.00 | 0.00 | 0.00 | 43 | |
| 20260905192548 | 97 | 145 | 0.0 | 7.0 | 0.00 | 0.00 | 0.00 | 44 | |
| 20260905192044 | 95 | 348 | 5.0 | 13.0 | 0.00 | 0.00 | 0.00 | 46 | |
| 20260905191542 | 95 | 319 | 7.0 | 9.0 | 0.00 | 0.00 | 0.00 | 47 | |
| 20260905191041 | 96 | 333 | 10.0 | 13.0 | 0.00 | 0.00 | 0.00 | 47 | |
| 20260905190540 | 96 | 354 | 7.0 | 9.0 | 0.00 | 0.00 | 0.00 | 46 | |
| 20260905190039 | 96 | 344 | 9.0 | 15.0 | 0.00 | 0.00 | 0.00 | 46 | |
| 20260905185539 | 98 | 343 | 16.0 | 21.0 | 0.00 | 0.00 | 0.00 | 44 | |
| 20260905185038 | 97 | 359 | 4.0 | 8.0 | 0.00 | 0.00 | 0.00 | 44 | |
| 20260905184539 | 96 | 204 | 6.0 | 10.0 | 0.00 | 0.00 | 0.00 | 44 | |
| 20260905184038 | 96 | 16 | 7.0 | 11.0 | 0.00 | 0.00 | 0.00 | 46 | |
| 20260905183537 | 96 | 281 | 5.0 | 7.0 | 0.00 | 0.00 | 0.00 | 45 | |
| 20260905183033 | 96 | 13 | 7.0 | 15.0 | 0.00 | 0.00 | 0.00 | 45 | |
| 20260905182533 | 96 | 7 | 11.0 | 14.0 | 0.00 | 0.00 | 0.00 | 45 | |
| 20260905182033 | 96 | 28 | 9.0 | 11.0 | 0.00 | 0.00 | 0.00 | 47 | |
| 20260905181528 | 96 | 346 | 11.0 | 11.0 | 0.00 | 0.00 | 0.00 | 47 | |
| 20260905181027 | 95 | 82 | 7.0 | 10.0 | 0.00 | 0.00 | 0.00 | 48 | |
| 20260905180527 | 95 | 348 | 9.0 | 10.0 | 0.00 | 0.00 | 0.00 | 46 | |
| 20260905180022 | 96 | 354 | 10.0 | 13.0 | 0.00 | 0.00 | 0.00 | 47 | |
| 20260905175521 | 95 | 13 | 7.0 | 14.0 | 0.00 | 0.00 | 0.00 | 46 | |
| 20260905175017 | 96 | 349 | 10.0 | 13.0 | 0.00 | 0.00 | 0.00 | 47 | |
| 20260905174513 | 96 | 304 | 9.0 | 11.0 | 0.00 | 0.00 | 0.00 | 48 | |
| 20260905174008 | 96 | 32 | 8.0 | 14.0 | 0.00 | 0.00 | 0.00 | 46 | |
| 20260905173504 | 96 | 320 | 6.0 | 8.0 | 0.00 | 0.00 | 0.00 | 48 | |
| 20260905173000 | 96 | 330 | 9.0 | 11.0 | 0.00 | 0.00 | 0.00 | 46 | |
| 20260905172458 | 96 | 305 | 6.0 | 8.0 | 0.00 | 0.00 | 0.00 | 47 | |
| 20260905171954 | 95 | 323 | 6.0 | 8.0 | 0.00 | 0.00 | 0.00 | 48 | |
| 20260905171450 | 95 | 339 | 8.0 | 9.0 | 0.00 | 0.00 | 0.00 | 47 | |
| 20260905170946 | 95 | 42 | 4.0 | 6.0 | 0.00 | 0.00 | 0.00 | 48 | |
| 20260905170442 | 95 | 4 | 7.0 | 8.0 | 0.00 | 0.00 | 0.00 | 50 | |
| 20260905165941 | 95 | 40 | 8.0 | 10.0 | 0.00 | 0.00 | 0.00 | 51 | |
| 20260905165436 | 94 | 40 | 6.0 | 9.0 | 0.00 | 0.00 | 0.00 | 50 | |
| 20260905164932 | 94 | 10 | 8.0 | 11.0 | 0.00 | 0.00 | 0.00 | 50 | |
| 20260905164426 | 95 | 21 | 6.0 | 10.0 | 0.00 | 0.00 | 0.00 | 48 | |
| 20260905163921 | 94 | 49 | 5.0 | 8.0 | 0.00 | 0.00 | 0.00 | 48 | |
| 20260905163418 | 95 | 346 | 5.0 | 9.0 | 0.00 | 0.00 | 0.00 | 49 | |
| 20260905162914 | 95 | 340 | 8.0 | 9.0 | 0.00 | 0.00 | 0.00 | 49 | |
| 20260905162414 | 95 | 305 | 6.0 | 8.0 | 0.00 | 0.00 | 0.00 | 49 | |
| 20260905161908 | 94 | 263 | 2.0 | 7.0 | 0.00 | 0.00 | 0.00 | 50 | |
| 20260905161403 | 94 | 164 | 1.0 | 6.0 | 0.00 | 0.00 | 0.00 | 51 | |
| 20260905160901 | 94 | 6 | 8.0 | 9.0 | 0.00 | 0.00 | 0.00 | 51 | |
| 20260905160354 | 94 | 11 | 7.0 | 11.0 | 0.00 | 0.00 | 0.00 | 51 | |
| 20260905155849 | 94 | 318 | 5.0 | 6.0 | 0.00 | 0.00 | 0.00 | 51 | |
| 20260905155349 | 94 | 25 | 4.0 | 6.0 | 0.00 | 0.00 | 0.00 | 51 | |
| 20260905154848 | 94 | 354 | 4.0 | 4.0 | 0.00 | 0.00 | 0.00 | 50 | |
| 20260905154344 | 94 | 220 | 2.0 | 3.0 | 0.00 | 0.00 | 0.00 | 51 | |
| 20260905153839 | 93 | 179 | 2.0 | 3.0 | 0.00 | 0.00 | 0.00 | 52 | |
| 20260905153336 | 93 | 102 | 3.0 | 3.0 | 0.00 | 0.00 | 0.00 | 54 | |
| 20260905152835 | 93 | 339 | 4.0 | 6.0 | 0.00 | 0.00 | 0.00 | 53 | |
| 20260905152334 | 93 | 154 | 2.0 | 6.0 | 0.00 | 0.00 | 0.00 | 53 | |
| 20260905151829 | 92 | 194 | 3.0 | 4.0 | 0.00 | 0.00 | 0.00 | 53 | |
| 20260905151325 | 93 | 76 | 2.0 | 4.0 | 0.00 | 0.00 | 0.00 | 53 | |
| 20260905150824 | 92 | 127 | 0.0 | 1.0 | 0.00 | 0.00 | 0.00 | 54 | |
| 20260905150319 | 91 | 172 | 2.0 | 4.0 | 0.00 | 0.00 | 0.00 | 55 | |
| 20260905145817 | 92 | 324 | 4.0 | 7.0 | 0.00 | 0.00 | 0.00 | 53 | |
| 20260905145316 | 91 | 194 | 3.0 | 3.0 | 0.00 | 0.00 | 0.00 | 55 | |
| 20260905144815 | 91 | 139 | 2.0 | 7.0 | 0.00 | 0.00 | 0.00 | 56 | |
| 20260905144311 | 90 | 245 | 3.0 | 7.0 | 0.00 | 0.00 | 0.00 | 56 | |
| 20260905143809 | 91 | 324 | 6.0 | 8.0 | 0.00 | 0.00 | 0.00 | 56 | |
| 20260905143304 | 90 | 334 | 5.0 | 7.0 | 0.00 | 0.00 | 0.00 | 57 | |
| 20260905142803 | 90 | 274 | 4.0 | 4.0 | 0.00 | 0.00 | 0.00 | 56 | |
| 20260905142257 | 90 | 256 | 2.0 | 4.0 | 0.00 | 0.00 | 0.00 | 58 | |
| 20260905141754 | 89 | 141 | 1.0 | 3.0 | 0.00 | 0.00 | 0.00 | 59 | |
| 20260905141249 | 89 | 200 | 3.0 | 6.0 | 0.00 | 0.00 | 0.00 | 58 | |
| 20260905140744 | 89 | 210 | 4.0 | 7.0 | 0.00 | 0.00 | 0.00 | 58 | |
| 20260905140239 | 89 | 149 | 1.0 | 3.0 | 0.00 | 0.00 | 0.00 | 60 | |
| 20260905135737 | 90 | 137 | 2.0 | 6.0 | 0.00 | 0.00 | 0.00 | 59 | |
| 20260905135234 | 89 | 139 | 2.0 | 3.0 | 0.00 | 0.00 | 0.00 | 59 | |
| 20260905134733 | 89 | 137 | 0.0 | 3.0 | 0.00 | 0.00 | 0.00 | 62 | |
| 20260905134232 | 89 | 228 | 4.0 | 6.0 | 0.00 | 0.00 | 0.00 | 59 | |
| 20260905133727 | 89 | 169 | 2.0 | 3.0 | 0.00 | 0.00 | 0.00 | 58 | |
| 20260905133223 | 89 | 136 | 0.0 | 1.0 | 0.00 | 0.00 | 0.00 | 59 | |
| 20260905132721 | 89 | 154 | 0.0 | 2.0 | 0.00 | 0.00 | 0.00 | 59 | |
| 20260905132217 | 88 | 154 | 0.0 | 2.0 | 0.00 | 0.00 | 0.00 | 59 | |
| 20260905131712 | 88 | 137 | 1.0 | 2.0 | 0.00 | 0.00 | 0.00 | 60 | |
| 20260905131208 | 87 | 135 | 0.0 | 0.0 | 0.00 | 0.00 | 0.00 | 63 | |
| 20260905130707 | 86 | 154 | 0.0 | 1.0 | 0.00 | 0.00 | 0.00 | 63 | |
| 20260905130202 | 86 | 149 | 0.0 | 1.0 | 0.00 | 0.00 | 0.00 | 64 | |
| 20260905125702 | 85 | 150 | 1.0 | 1.0 | 0.00 | 0.00 | 0.00 | 64 | |
| 20260905125157 | 85 | 156 | 1.0 | 1.0 | 0.00 | 0.00 | 0.00 | 64 | |
| 20260905124654 | 86 | 149 | 1.0 | 1.0 | 0.00 | 0.00 | 0.00 | 62 | |
| 20260905124149 | 86 | 135 | 0.0 | 0.0 | 0.00 | 0.00 | 0.00 | 61 | |
| 20260905123644 | 85 | 134 | 0.0 | 0.0 | 0.00 | 0.00 | 0.00 | 63 | |
| 20260905123142 | 83 | 139 | 0.0 | 0.0 | 0.00 | 0.00 | 0.00 | 65 | |
| 20260905122641 | 83 | 146 | 0.0 | 0.0 | 0.00 | 0.00 | 0.00 | 66 | |
| 20260905122136 | 83 | 156 | 0.0 | 0.0 | 0.00 | 0.00 | 0.00 | 66 | |
| 20260905121630 | 82 | 178 | 0.0 | 0.0 | 0.00 | 0.00 | 0.00 | 67 | |
| 20260905121126 | 82 | 149 | 0.0 | 0.0 | 0.00 | 0.00 | 0.00 | 68 | |
| 20260905120625 | 81 | 139 | 0.0 | 0.0 | 0.00 | 0.00 | 0.00 | 70 | |
| 20260905120120 | 81 | 147 | 0.0 | 0.0 | 0.00 | 0.00 | 0.00 | 70 | |
| 20260905115619 | 80 | 143 | 0.0 | 0.0 | 0.00 | 0.00 | 0.00 | 72 | |
| 20260905115114 | 80 | 148 | 0.0 | 1.0 | 0.00 | 0.00 | 0.00 | 72 | |
| 20260905114614 | 80 | 154 | 1.0 | 1.0 | 0.00 | 0.00 | 0.00 | 73 | |
| 20260905114113 | 79 | 157 | 1.0 | 1.0 | 0.00 | 0.00 | 0.00 | 74 | |
| 20260905113608 | 79 | 166 | 1.0 | 2.0 | 0.00 | 0.00 | 0.00 | 75 | |
| 20260905113103 | 79 | 155 | 2.0 | 2.0 | 0.00 | 0.00 | 0.00 | 76 | |
| 20260905112558 | 79 | 173 | 2.0 | 3.0 | 0.00 | 0.00 | 0.00 | 76 | |
| 20260905112054 | 78 | 190 | 2.0 | 2.0 | 0.00 | 0.00 | 0.00 | 76 | |
| 20260905111548 | 78 | 203 | 2.0 | 3.0 | 0.00 | 0.00 | 0.00 | 76 | |
| 20260905111048 | 79 | 185 | 2.0 | 3.0 | 0.00 | 0.00 | 0.00 | 76 | |
| 20260905110547 | 79 | 174 | 2.0 | 3.0 | 0.00 | 0.00 | 0.00 | 76 | |
| 20260905110042 | 78 | 199 | 2.0 | 3.0 | 0.00 | 0.00 | 0.00 | 76 | |
| 20260905105542 | 78 | 204 | 3.0 | 3.0 | 0.00 | 0.00 | 0.00 | 76 | |
| 20260905105041 | 78 | 215 | 3.0 | 3.0 | 0.00 | 0.00 | 0.00 | 76 | |
| 20260905104538 | 79 | 190 | 2.0 | 3.0 | 0.00 | 0.00 | 0.00 | 76 | |
| 20260905104037 | 79 | 221 | 3.0 | 4.0 | 0.00 | 0.00 | 0.00 | 76 | |
| 20260905103532 | 79 | 221 | 3.0 | 3.0 | 0.00 | 0.00 | 0.00 | 76 | |
| 20260905103028 | 79 | 191 | 2.0 | 3.0 | 0.00 | 0.00 | 0.00 | 76 | |
| 20260905102524 | 79 | 179 | 3.0 | 3.0 | 0.00 | 0.00 | 0.00 | 76 | |
| 20260905102020 | 79 | 227 | 4.0 | 4.0 | 0.00 | 0.00 | 0.00 | 75 | |
| 20260905101518 | 79 | 231 | 4.0 | 6.0 | 0.00 | 0.00 | 0.00 | 75 | |
| 20260905101017 | 78 | 205 | 4.0 | 6.0 | 0.00 | 0.00 | 0.00 | 76 | |
| 20260905100514 | 78 | 220 | 4.0 | 6.0 | 0.00 | 0.00 | 0.00 | 76 | |
| 20260905100013 | 79 | 232 | 4.0 | 6.0 | 0.00 | 0.00 | 0.00 | 76 | |
| 20260905095508 | 78 | 224 | 5.0 | 7.0 | 0.00 | 0.00 | 0.00 | 76 | |
| 20260905095003 | 78 | 229 | 4.0 | 6.0 | 0.00 | 0.00 | 0.00 | 76 | |
| 20260905094458 | 78 | 245 | 4.0 | 4.0 | 0.00 | 0.00 | 0.00 | 77 | |
| 20260905093956 | 78 | 233 | 4.0 | 4.0 | 0.00 | 0.00 | 0.00 | 77 | |
| 20260905093452 | 78 | 206 | 4.0 | 6.0 | 0.00 | 0.00 | 0.00 | 77 | |
| 20260905092948 | 78 | 220 | 4.0 | 6.0 | 0.00 | 0.00 | 0.00 | 77 | |
| 20260905092444 | 78 | 234 | 4.0 | 4.0 | 0.00 | 0.00 | 0.00 | 78 | |
| 20260905091939 | 78 | 229 | 4.0 | 6.0 | 0.00 | 0.00 | 0.00 | 78 | |
| 20260905091438 | 78 | 236 | 4.0 | 4.0 | 0.00 | 0.00 | 0.00 | 77 | |
| 20260905090938 | 78 | 235 | 3.0 | 4.0 | 0.00 | 0.00 | 0.00 | 78 | |
| 20260905090433 | 77 | 173 | 0.0 | 0.0 | 0.00 | 0.00 | 0.00 | 79 | |
| 20260905085932 | 77 | 134 | 0.0 | 2.0 | 0.00 | 0.00 | 0.00 | 79 | |
| 20260905085432 | 77 | 142 | 0.0 | 1.0 | 0.00 | 0.00 | 0.00 | 79 | |
| 20260905084928 | 77 | 147 | 1.0 | 2.0 | 0.00 | 0.00 | 0.00 | 79 | |
| 20260905084427 | 77 | 171 | 2.0 | 3.0 | 0.00 | 0.00 | 0.00 | 80 | |
| 20260905083922 | 76 | 253 | 2.0 | 3.0 | 0.00 | 0.00 | 0.00 | 80 | |
| 20260905083418 | 76 | 151 | 1.0 | 2.0 | 0.00 | 0.00 | 0.00 | 80 | |
| 20260905082913 | 77 | 81 | 2.0 | 4.0 | 0.00 | 0.00 | 0.00 | 79 | |
| 20260905082410 | 79 | 143 | 1.0 | 2.0 | 0.00 | 0.00 | 0.00 | 75 | |
| 20260905081909 | 80 | 154 | 2.0 | 3.0 | 0.00 | 0.00 | 0.00 | 74 | |
| 20260905081404 | 80 | 273 | 4.0 | 6.0 | 0.00 | 0.00 | 0.00 | 73 | |
| 20260905080903 | 80 | 220 | 4.0 | 6.0 | 0.00 | 0.00 | 0.00 | 73 | |
| 20260905080358 | 80 | 219 | 4.0 | 6.0 | 0.00 | 0.00 | 0.00 | 72 | |
| 20260905075857 | 80 | 211 | 4.0 | 4.0 | 0.00 | 0.00 | 0.00 | 72 | |
| 20260905075357 | 80 | 183 | 2.0 | 3.0 | 0.00 | 0.00 | 0.00 | 73 | |
| 20260905074856 | 80 | 170 | 3.0 | 3.0 | 0.00 | 0.00 | 0.00 | 73 | |
| 20260905074352 | 80 | 209 | 3.0 | 4.0 | 0.00 | 0.00 | 0.00 | 73 | |
| 20260905073847 | 80 | 203 | 4.0 | 6.0 | 0.00 | 0.00 | 0.00 | 72 | |
| 20260905073343 | 81 | 215 | 3.0 | 6.0 | 0.00 | 0.00 | 0.00 | 71 | |
| 20260905072837 | 81 | 200 | 4.0 | 6.0 | 0.00 | 0.00 | 0.00 | 71 | |
| 20260905072332 | 81 | 199 | 4.0 | 4.0 | 0.00 | 0.00 | 0.00 | 70 | |
| 20260905071829 | 81 | 201 | 4.0 | 4.0 | 0.00 | 0.00 | 0.00 | 71 | |
| 20260905071326 | 80 | 206 | 4.0 | 6.0 | 0.00 | 0.00 | 0.00 | 71 | |
| 20260905070825 | 80 | 218 | 4.0 | 6.0 | 0.00 | 0.00 | 0.00 | 72 | |
| 20260905070322 | 80 | 167 | 5.0 | 8.0 | 0.00 | 0.00 | 0.00 | 72 | |
| 20260905065820 | 80 | 203 | 6.0 | 8.0 | 0.00 | 0.00 | 0.00 | 71 | |
| 20260905065319 | 81 | 208 | 5.0 | 7.0 | 0.00 | 0.00 | 0.00 | 71 | |
| 20260905064814 | 81 | 190 | 5.0 | 7.0 | 0.00 | 0.00 | 0.00 | 70 | |
| 20260905064310 | 81 | 211 | 5.0 | 7.0 | 0.00 | 0.00 | 0.00 | 69 | |
| 20260905063808 | 82 | 199 | 4.0 | 7.0 | 0.00 | 0.00 | 0.00 | 68 | |
| 20260905063305 | 82 | 183 | 6.0 | 8.0 | 0.00 | 0.00 | 0.00 | 68 | |
| 20260905062801 | 82 | 209 | 4.0 | 6.0 | 0.00 | 0.00 | 0.00 | 68 | |
| 20260905062300 | 82 | 180 | 4.0 | 4.0 | 0.00 | 0.00 | 0.00 | 68 | |
| 20260905061755 | 82 | 176 | 3.0 | 4.0 | 0.00 | 0.00 | 0.00 | 68 | |
| 20260905061250 | 82 | 209 | 3.0 | 4.0 | 0.00 | 0.00 | 0.00 | 69 | |
| 20260905060749 | 82 | 188 | 3.0 | 4.0 | 0.00 | 0.00 | 0.00 | 68 | |
| 20260905060247 | 81 | 194 | 3.0 | 4.0 | 0.00 | 0.00 | 0.00 | 68 | |
| 20260905055745 | 82 | 168 | 3.0 | 4.0 | 0.00 | 0.00 | 0.00 | 68 | |
| 20260905055240 | 83 | 157 | 4.0 | 4.0 | 0.00 | 0.00 | 0.00 | 66 | |
| 20260905054735 | 83 | 191 | 3.0 | 3.0 | 0.00 | 0.00 | 0.00 | 64 | |
| 20260905054232 | 83 | 164 | 2.0 | 2.0 | 0.00 | 0.00 | 0.00 | 64 | |
| 20260905053731 | 83 | 161 | 1.0 | 2.0 | 0.00 | 0.00 | 0.00 | 64 | |
| 20260905053227 | 82 | 150 | 0.0 | 0.0 | 0.00 | 0.00 | 0.00 | 66 | |
| 20260905052726 | 82 | 142 | 0.0 | 0.0 | 0.00 | 0.00 | 0.00 | 66 | |
| 20260905052221 | 82 | 141 | 0.0 | 0.0 | 0.00 | 0.00 | 0.00 | 67 | |
| 20260905051721 | 82 | 140 | 0.0 | 0.0 | 0.00 | 0.00 | 0.00 | 67 | |
| 20260905051218 | 83 | 132 | 0.0 | 0.0 | 0.00 | 0.00 | 0.00 | 66 | |
| 20260905050714 | 84 | 132 | 0.0 | 0.0 | 0.00 | 0.00 | 0.00 | 64 | |
| 20260905050211 | 84 | 151 | 1.0 | 1.0 | 0.00 | 0.00 | 0.00 | 63 | |
| 20260905045710 | 83 | 167 | 2.0 | 2.0 | 0.00 | 0.00 | 0.00 | 63 | |
| 20260905045206 | 82 | 163 | 2.0 | 2.0 | 0.00 | 0.00 | 0.00 | 65 | |
| 20260905044701 | 82 | 144 | 1.0 | 2.0 | 0.00 | 0.00 | 0.00 | 67 | |
| 20260905044200 | 83 | 153 | 1.0 | 2.0 | 0.00 | 0.00 | 0.00 | 64 | |
| 20260905043659 | 83 | 168 | 2.0 | 2.0 | 0.00 | 0.00 | 0.00 | 64 | |
| 20260905043154 | 83 | 154 | 2.0 | 2.0 | 0.00 | 0.00 | 0.00 | 65 | |
| 20260905042649 | 84 | 143 | 0.0 | 1.0 | 0.00 | 0.00 | 0.00 | 64 | |
| 20260905042148 | 83 | 148 | 1.0 | 2.0 | 0.00 | 0.00 | 0.00 | 64 | |
| 20260905041644 | 83 | 155 | 1.0 | 2.0 | 0.00 | 0.00 | 0.00 | 64 | |
| 20260905041139 | 83 | 166 | 2.0 | 2.0 | 0.00 | 0.00 | 0.00 | 64 | |
| 20260905040634 | 84 | 147 | 0.0 | 0.0 | 0.00 | 0.00 | 0.00 | 64 | |
| 20260905040133 | 84 | 148 | 0.0 | 0.0 | 0.00 | 0.00 | 0.00 | 63 | |
| 20260905035628 | 84 | 154 | 1.0 | 2.0 | 0.00 | 0.00 | 0.00 | 63 | |
| 20260905035125 | 85 | 198 | 3.0 | 3.0 | 0.00 | 0.00 | 0.00 | 62 | |
| 20260905034621 | 84 | 203 | 3.0 | 3.0 | 0.00 | 0.00 | 0.00 | 62 | |
| 20260905034120 | 85 | 155 | 1.0 | 1.0 | 0.00 | 0.00 | 0.00 | 62 | |
| 20260905033619 | 85 | 190 | 2.0 | 3.0 | 0.00 | 0.00 | 0.00 | 61 | |
| 20260905033115 | 84 | 167 | 2.0 | 3.0 | 0.00 | 0.00 | 0.00 | 62 | |
| 20260905032615 | 85 | 180 | 2.0 | 3.0 | 0.00 | 0.00 | 0.00 | 62 | |
| 20260905032115 | 85 | 167 | 3.0 | 3.0 | 0.00 | 0.00 | 0.00 | 61 | |
| 20260905031611 | 85 | 181 | 2.0 | 3.0 | 0.00 | 0.00 | 0.00 | 61 | |
| 20260905031111 | 85 | 159 | 1.0 | 3.0 | 0.00 | 0.00 | 0.00 | 61 | |
| 20260905030606 | 85 | 180 | 2.0 | 3.0 | 0.00 | 0.00 | 0.00 | 61 | |
| 20260905030101 | 85 | 167 | 1.0 | 2.0 | 0.00 | 0.00 | 0.00 | 61 | |
| 20260905025556 | 85 | 157 | 1.0 | 2.0 | 0.00 | 0.00 | 0.00 | 61 | |
| 20260905025052 | 85 | 166 | 2.0 | 3.0 | 0.00 | 0.00 | 0.00 | 61 | |
| 20260905024548 | 86 | 178 | 2.0 | 2.0 | 0.00 | 0.00 | 0.00 | 61 | |
| 20260905024043 | 85 | 175 | 2.0 | 2.0 | 0.00 | 0.00 | 0.00 | 60 | |
| 20260905023538 | 85 | 161 | 2.0 | 2.0 | 0.00 | 0.00 | 0.00 | 61 | |
| 20260905023032 | 85 | 166 | 2.0 | 3.0 | 0.00 | 0.00 | 0.00 | 61 | |
| 20260905022532 | 85 | 174 | 2.0 | 2.0 | 0.00 | 0.00 | 0.00 | 61 | |
| 20260905022027 | 85 | 153 | 1.0 | 2.0 | 0.00 | 0.00 | 0.00 | 61 | |
| 20260905021527 | 85 | 173 | 2.0 | 2.0 | 0.00 | 0.00 | 0.00 | 61 | |
| 20260905021022 | 85 | 182 | 2.0 | 3.0 | 0.00 | 0.00 | 0.00 | 61 | |
| 20260905020522 | 86 | 181 | 2.0 | 3.0 | 0.00 | 0.00 | 0.00 | 60 | |
| 20260905020017 | 86 | 204 | 2.0 | 3.0 | 0.00 | 0.00 | 0.00 | 59 | |
| 20260905015515 | 86 | 209 | 3.0 | 4.0 | 0.00 | 0.00 | 0.00 | 59 | |
| 20260905015010 | 86 | 185 | 2.0 | 3.0 | 0.00 | 0.00 | 0.00 | 59 | |
| 20260905014505 | 87 | 214 | 3.0 | 4.0 | 0.00 | 0.00 | 0.00 | 58 | |
| 20260905014000 | 87 | 213 | 3.0 | 3.0 | 0.00 | 0.00 | 0.00 | 59 | |
| 20260905013456 | 87 | 159 | 3.0 | 4.0 | 0.00 | 0.00 | 0.00 | 58 | |
| 20260905012951 | 87 | 204 | 4.0 | 4.0 | 0.00 | 0.00 | 0.00 | 57 | |
| 20260905012446 | 88 | 195 | 4.0 | 4.0 | 0.00 | 0.00 | 0.00 | 57 | |
| 20260905011942 | 88 | 193 | 3.0 | 4.0 | 0.00 | 0.00 | 0.00 | 56 | |
| 20260905011438 | 88 | 201 | 4.0 | 6.0 | 0.00 | 0.00 | 0.00 | 55 | |
| 20260905010933 | 88 | 173 | 4.0 | 4.0 | 0.00 | 0.00 | 0.00 | 55 | |
| 20260905010428 | 89 | 178 | 3.0 | 4.0 | 0.00 | 0.00 | 0.00 | 55 | |
| 20260905005924 | 89 | 187 | 4.0 | 4.0 | 0.00 | 0.00 | 0.00 | 55 | |
| 20260905005420 | 89 | 187 | 3.0 | 4.0 | 0.00 | 0.00 | 0.00 | 54 | |
| 20260905004920 | 89 | 198 | 4.0 | 4.0 | 0.00 | 0.00 | 0.00 | 54 | |
| 20260905004415 | 89 | 190 | 3.0 | 4.0 | 0.00 | 0.00 | 0.00 | 54 | |
| 20260905003910 | 90 | 193 | 4.0 | 4.0 | 0.00 | 0.00 | 0.00 | 54 | |
| 20260905003407 | 90 | 167 | 3.0 | 6.0 | 0.00 | 0.00 | 0.00 | 53 | |
| 20260905002902 | 90 | 165 | 2.0 | 3.0 | 0.00 | 0.00 | 0.00 | 53 | |
| 20260905002401 | 89 | 182 | 4.0 | 4.0 | 0.00 | 0.00 | 0.00 | 53 | |
| 20260905001856 | 90 | 178 | 3.0 | 3.0 | 0.00 | 0.00 | 0.00 | 54 | |
| 20260905001356 | 90 | 172 | 2.0 | 3.0 | 0.00 | 0.00 | 0.00 | 54 | |
| 20260905000851 | 91 | 187 | 2.0 | 3.0 | 0.00 | 0.00 | 0.00 | 54 | |
| 20260905000347 | 91 | 192 | 3.0 | 3.0 | 0.00 | 0.00 | 0.00 | 53 | |
| 20260904235842 | 92 | 178 | 2.0 | 3.0 | 0.00 | 0.00 | 0.00 | 51 | |
| 20260904235337 | 93 | 163 | 2.0 | 2.0 | 0.00 | 0.00 | 0.00 | 49 | |
| 20260904234833 | 93 | 180 | 2.0 | 3.0 | 0.00 | 0.00 | 0.00 | 48 |